Location: Unspecified
(0.0000°N, 0.0000°E)
Time: 21:24:25
(UTC+00:00)

SL-12 DEB - Visible Passes

Search period start: 29 April 2025 00:00
Search period end: 09 May 2025 00:00
Orbit: 613 x 19076 km, 65.6° (Epoch: 12 January)

Date Brightness Start Highest point End Pass type
(mag) Time Alt. Az. Time Alt. Az. Time Alt. Az.
29 Apr ? 02:47:09 10° E 02:51:16 11° E 02:56:47 10° ENE visible
29 Apr ? 17:24:30 10° NNW 19:07:34 41° W 19:26:06 10° SSW visible
30 Apr ? 16:06:22 10° NNW 18:10:35 65° W 18:28:05 10° S visible
02 May ? 05:28:22 10° SSW 05:38:54 73° WNW 06:49:21 10° NNE visible
03 May ? 04:28:47 10° S 04:38:23 72° ESE 05:38:35 10° NNE visible
04 May ? 03:30:25 10° SSE 03:40:09 40° E 04:25:06 10° NNE visible
04 May ? 19:11:21 10° NW 19:52:49 15° WNW 20:10:01 10° WSW visible
05 May ? 02:34:35 10° SE 02:43:37 19° E 03:06:27 10° NE visible
05 May ? 17:31:47 10° NNW 18:59:38 32° W 19:18:37 10° SSW visible
08 May ? 05:22:59 10° SW 05:34:33 59° WNW 06:49:23 10° NNE visible
